EN

Hourly Weather Egervár

Today, 22 October, Thursday

Time Temperature Precipitation Wind Pressure Humidity
00:00 +9°C° 0 mm 3 mps 742 mmHg 84%
01:00 +9°C° 0 mm 3 mps 742 mmHg 87%
02:00 +9°C° 0 mm 2 mps 743 mmHg 89%
03:00 +8°C° 0 mm 2 mps 743 mmHg 90%
04:00 +8°C° 0 mm 2 mps 743 mmHg 92%
05:00 +9°C° 0 mm 1 mps 743 mmHg 93%
06:00 +9°C° 0 mm 1 mps 743 mmHg 93%
07:00 +9°C° 0 mm 1 mps 744 mmHg 94%
08:00 +10°C° 0 mm 1 mps 744 mmHg 88%
09:00 +12°C° 0 mm 1 mps 744 mmHg 82%
10:00 +13°C° 0 mm 2 mps 744 mmHg 77%
11:00 +14°C° 0 mm 1 mps 744 mmHg 73%
12:00 +15°C° 0 mm 1 mps 744 mmHg 69%
13:00 +16°C° 0 mm 1 mps 744 mmHg 66%
14:00 +16°C° 0 mm 1 mps 744 mmHg 68%
15:00 +16°C° 0 mm 1 mps 744 mmHg 70%
16:00 +15°C° 0 mm 0 mps 744 mmHg 73%
17:00 +15°C° 0 mm 1 mps 744 mmHg 77%
18:00 +13°C° 0 mm 1 mps 744 mmHg 82%
19:00 +12°C° 0 mm 1 mps 744 mmHg 86%
20:00 +12°C° 0 mm 1 mps 744 mmHg 88%
21:00 +12°C° 0 mm 1 mps 743 mmHg 89%
22:00 +11°C° 0 mm 1 mps 743 mmHg 91%
23:00 +11°C° 0 mm 1 mps 743 mmHg 92%

Tomorrow, 23 October, Friday

Time Temperature Precipitation Wind Pressure Humidity
00:00 +11°C° 0 mm 1 mps 743 mmHg 92%
01:00 +10°C° 0 mm 1 mps 743 mmHg 93%
02:00 +10°C° 0 mm 1 mps 743 mmHg 93%
03:00 +10°C° 0 mm 1 mps 743 mmHg 94%
04:00 +10°C° 0 mm 1 mps 742 mmHg 94%
05:00 +10°C° 0 mm 1 mps 742 mmHg 94%
06:00 +9°C° 0 mm 0 mps 742 mmHg 94%
07:00 +8°C° 0 mm 0 mps 742 mmHg 94%
08:00 +11°C° 0 mm 1 mps 742 mmHg 88%
09:00 +13°C° 0 mm 1 mps 742 mmHg 81%
10:00 +14°C° 0 mm 1 mps 742 mmHg 75%
11:00 +16°C° 0 mm 2 mps 741 mmHg 71%
12:00 +17°C° 0 mm 2 mps 741 mmHg 68%
13:00 +18°C° 0 mm 3 mps 741 mmHg 65%
14:00 +18°C° 0 mm 3 mps 740 mmHg 68%
15:00 +17°C° 0 mm 3 mps 740 mmHg 70%
16:00 +17°C° 0 mm 2 mps 740 mmHg 73%
17:00 +16°C° 0 mm 3 mps 740 mmHg 75%
18:00 +16°C° 0 mm 3 mps 739 mmHg 77%
19:00 +14°C° 0 mm 4 mps 739 mmHg 80%
20:00 +13°C° 0 mm 4 mps 739 mmHg 81%
21:00 +13°C° 0 mm 3 mps 740 mmHg 82%
22:00 +13°C° 0 mm 3 mps 740 mmHg 83%
23:00 +12°C° 0 mm 3 mps 740 mmHg 85%

Day after tomorrow, 24 October, Saturday

Time Temperature Precipitation Wind Pressure Humidity
00:00 +13°C° 0 mm 2 mps 740 mmHg 88%
01:00 +12°C° 0 mm 2 mps 740 mmHg 90%
02:00 +12°C° 0 mm 1 mps 740 mmHg 91%
03:00 +12°C° 0 mm 1 mps 740 mmHg 92%
04:00 +11°C° 0 mm 1 mps 740 mmHg 93%
05:00 +11°C° 0.2 mm 1 mps 741 mmHg 92%
06:00 +12°C° 0.2 mm 1 mps 741 mmHg 92%
07:00 +12°C° 0.2 mm 1 mps 741 mmHg 91%
08:00 +13°C° 0.1 mm 1 mps 742 mmHg 89%
09:00 +14°C° 0.1 mm 1 mps 742 mmHg 87%
10:00 +14°C° 0.1 mm 1 mps 742 mmHg 85%
11:00 +16°C° 0 mm 1 mps 742 mmHg 79%
12:00 +18°C° 0 mm 1 mps 742 mmHg 73%
13:00 +20°C° 0 mm 1 mps 742 mmHg 67%
14:00 +19°C° 0.2 mm 1 mps 742 mmHg 70%
15:00 +18°C° 0.2 mm 1 mps 742 mmHg 73%
16:00 +18°C° 0.2 mm 1 mps 742 mmHg 77%
17:00 +16°C° 0.1 mm 1 mps 742 mmHg 80%
18:00 +15°C° 0.1 mm 1 mps 743 mmHg 82%
19:00 +14°C° 0.1 mm 1 mps 743 mmHg 85%
20:00 +13°C° 0 mm 1 mps 743 mmHg 86%
21:00 +13°C° 0 mm 1 mps 743 mmHg 88%
22:00 +12°C° 0 mm 1 mps 743 mmHg 89%
23:00 +12°C° 0 mm 1 mps 743 mmHg 89%

, 25 October, Sunday

Time Temperature Precipitation Wind Pressure Humidity
00:00 +12°C° 0 mm 2 mps 743 mmHg 89%
01:00 +10°C° 0 mm 2 mps 743 mmHg 89%
02:00 +11°C° 0 mm 1 mps 743 mmHg 90%
03:00 +10°C° 0 mm 1 mps 743 mmHg 90%
04:00 +10°C° 0 mm 1 mps 743 mmHg 91%
05:00 +10°C° 0 mm 1 mps 743 mmHg 91%
06:00 +10°C° 0 mm 1 mps 743 mmHg 91%
07:00 +10°C° 0 mm 1 mps 742 mmHg 92%
08:00 +12°C° 0 mm 1 mps 742 mmHg 86%
09:00 +13°C° 0 mm 1 mps 742 mmHg 81%
10:00 +15°C° 0 mm 1 mps 742 mmHg 75%
11:00 +16°C° 0 mm 1 mps 742 mmHg 73%
12:00 +16°C° 0 mm 1 mps 741 mmHg 72%
13:00 +17°C° 0 mm 2 mps 741 mmHg 70%
14:00 +18°C° 0 mm 1 mps 741 mmHg 73%
15:00 +16°C° 0 mm 1 mps 740 mmHg 76%
16:00 +16°C° 0 mm 1 mps 740 mmHg 79%
17:00 +14°C° 0 mm 1 mps 740 mmHg 82%
18:00 +13°C° 0 mm 1 mps 740 mmHg 86%
19:00 +12°C° 0 mm 1 mps 740 mmHg 89%
20:00 +12°C° 0 mm 1 mps 740 mmHg 90%
21:00 +12°C° 0 mm 1 mps 739 mmHg 91%
22:00 +12°C° 0 mm 1 mps 739 mmHg 92%
23:00 +11°C° 0 mm 1 mps 739 mmHg 93%

25 October, Sunday

Time Temperature Precipitation Wind Pressure Humidity
00:00 +12°C° 0 mm 2 mps 743 mmHg 89%
01:00 +10°C° 0 mm 2 mps 743 mmHg 89%
02:00 +11°C° 0 mm 1 mps 743 mmHg 90%
03:00 +10°C° 0 mm 1 mps 743 mmHg 90%
04:00 +10°C° 0 mm 1 mps 743 mmHg 91%
05:00 +10°C° 0 mm 1 mps 743 mmHg 91%
06:00 +10°C° 0 mm 1 mps 743 mmHg 91%
07:00 +10°C° 0 mm 1 mps 742 mmHg 92%
08:00 +12°C° 0 mm 1 mps 742 mmHg 86%
09:00 +13°C° 0 mm 1 mps 742 mmHg 81%
10:00 +15°C° 0 mm 1 mps 742 mmHg 75%
11:00 +16°C° 0 mm 1 mps 742 mmHg 73%
12:00 +16°C° 0 mm 1 mps 741 mmHg 72%
13:00 +17°C° 0 mm 2 mps 741 mmHg 70%
14:00 +18°C° 0 mm 1 mps 741 mmHg 73%
15:00 +16°C° 0 mm 1 mps 740 mmHg 76%
16:00 +16°C° 0 mm 1 mps 740 mmHg 79%
17:00 +14°C° 0 mm 1 mps 740 mmHg 82%
18:00 +13°C° 0 mm 1 mps 740 mmHg 86%
19:00 +12°C° 0 mm 1 mps 740 mmHg 89%
20:00 +12°C° 0 mm 1 mps 740 mmHg 90%
21:00 +12°C° 0 mm 1 mps 739 mmHg 91%
22:00 +12°C° 0 mm 1 mps 739 mmHg 92%
23:00 +11°C° 0 mm 1 mps 739 mmHg 93%

26 October, Monday

Time Temperature Precipitation Wind Pressure Humidity
00:00 +11°C° 0 mm 1 mps 738 mmHg 94%
01:00 +11°C° 0 mm 1 mps 738 mmHg 95%
02:00 +11°C° 0 mm 1 mps 738 mmHg 95%
03:00 +10°C° 0 mm 2 mps 737 mmHg 95%
04:00 +10°C° 0 mm 2 mps 737 mmHg 95%
05:00 +10°C° 0 mm 2 mps 736 mmHg 96%
06:00 +10°C° 0 mm 2 mps 736 mmHg 96%
07:00 +9°C° 0 mm 3 mps 736 mmHg 97%
08:00 +11°C° 0 mm 3 mps 736 mmHg 91%
09:00 +12°C° 0 mm 4 mps 736 mmHg 85%
10:00 +14°C° 0 mm 5 mps 735 mmHg 79%
11:00 +15°C° 0 mm 5 mps 735 mmHg 74%
12:00 +16°C° 0 mm 5 mps 735 mmHg 69%
13:00 +17°C° 0 mm 6 mps 734 mmHg 64%
14:00 +16°C° 0 mm 5 mps 734 mmHg 66%
15:00 +16°C° 0 mm 5 mps 734 mmHg 69%
16:00 +15°C° 0 mm 4 mps 734 mmHg 71%
17:00 +15°C° 0 mm 4 mps 734 mmHg 75%
18:00 +14°C° 0 mm 4 mps 734 mmHg 78%
19:00 +13°C° 0 mm 4 mps 734 mmHg 82%
20:00 +13°C° 0 mm 4 mps 734 mmHg 83%
21:00 +12°C° 0 mm 4 mps 734 mmHg 85%
22:00 +12°C° 0 mm 3 mps 735 mmHg 86%
23:00 +11°C° 0 mm 3 mps 735 mmHg 87%

27 October, Tuesday

Time Temperature Precipitation Wind Pressure Humidity
00:00 +11°C° 0 mm 3 mps 734 mmHg 88%
01:00 +12°C° 0 mm 2 mps 734 mmHg 89%
02:00 +12°C° 0 mm 2 mps 734 mmHg 89%
03:00 +12°C° 0 mm 2 mps 734 mmHg 89%
04:00 +10°C° 0 mm 2 mps 734 mmHg 89%
05:00 +10°C° 0 mm 2 mps 734 mmHg 88%
06:00 +10°C° 0 mm 3 mps 734 mmHg 87%
07:00 +11°C° 0 mm 3 mps 735 mmHg 86%
08:00 +12°C° 0 mm 3 mps 735 mmHg 81%
09:00 +13°C° 0 mm 4 mps 735 mmHg 75%
10:00 +15°C° 0 mm 4 mps 735 mmHg 70%
11:00 +15°C° 0 mm 4 mps 735 mmHg 69%
12:00 +16°C° 0 mm 3 mps 735 mmHg 67%
13:00 +17°C° 0 mm 3 mps 735 mmHg 66%
14:00 +16°C° 0 mm 2 mps 735 mmHg 68%
15:00 +16°C° 0 mm 2 mps 735 mmHg 70%
16:00 +15°C° 0 mm 1 mps 735 mmHg 72%
17:00 +15°C° 0 mm 1 mps 736 mmHg 73%
18:00 +15°C° 0 mm 1 mps 736 mmHg 74%
19:00 +15°C° 0 mm 1 mps 736 mmHg 75%
20:00 +14°C° 0.1 mm 1 mps 736 mmHg 79%
21:00 +14°C° 0.1 mm 1 mps 736 mmHg 83%
22:00 +14°C° 0.1 mm 1 mps 736 mmHg 87%
23:00 +13°C° 0 mm 2 mps 736 mmHg 88%
Show more